FLOCK 2K-34

Last updated on Wed Feb 14 2018 16:20:53 GMT+0000 (Coordinated Universal Time)

1 42878U 17042BF 18045.49571366 .00007341 00000-0 21330-3 0 9999 2 42878 96.9930 308.3293 0012105 177.4412 182.6897 15.35675588 32807

Satellite not in orbit

FLOCK 2K-34